Regional Weather Roundup
Issued by NWS

Home | Current Version | Previous Version | Text Only | Print | Product List | Glossary On
Versions: 1 2 3 4 5 6 7 8 9 10 11 12 13 14 15 16 17 18 19 20 21 22 23 24 25 26 27 28 29 30 31 32 33 34 35 36 37 38 39 40 41 42 43 44 45 46 47 48 49 50
903
ASUS45 KPSR 282210
RWRAZ

ARIZONA HOURLY REGIONAL WEATHER ROUNDUP
NATIONAL WEATHER SERVICE PHOENIX AZ
300 PM MST SUN AUG 28 2016

NOTE: FAIR INDICATES FEW OR NO CLOUDS BELOW 12,000 FEET WITH NO
SIGNIFICANT WEATHER AND/OR OBSTRUCTIONS TO VISIBILITY.

AZZ001>003-036-282300-
NORTHWEST ARIZONA

CITY           SKY/WX    TMP DP  RH WIND       PRES   REMARKS
KINGMAN        SUNNY     90  45  21 N12       30.09F
$$

AZZ004>008-015-016-018-282300-
NORTH CENTRAL ARIZONA

CITY           SKY/WX    TMP DP  RH WIND       PRES   REMARKS
GRAND CANYON   SUNNY     73  41  31 NE8       30.32F
PRESCOTT       MOSUNNY   77  49  37 CALM      30.19F
FLAGSTAFF      MOSUNNY   70  44  39 NE8       30.31F
PAYSON         CLOUDY    73  46  38 N14       30.23S
PAGE           SUNNY     83  38  20 VRB5      30.15F
$$

AZZ009>014-017-282300-
NORTHEAST ARIZONA

CITY           SKY/WX    TMP DP  RH WIND       PRES   REMARKS
WINSLOW        MOSUNNY   79  44  28 N6        30.20F
SAINT JOHNS    PTSUNNY   76  38  25 NW17G23   30.22F
SHOW LOW       PTSUNNY   66  39  37 NW8       30.30S
$$

AZZ023-282300-
GREATER PHOENIX AREA

CITY           SKY/WX    TMP DP  RH WIND       PRES   REMARKS
PHOENIX        MOSUNNY   98  45  16 VRB5      29.89F
BUCKEYE        SUNNY     99  41  13 SW3       29.91F
GLENDALE       MOSUNNY  100  45  15 W6        29.91F
LUKE AFB       SUNNY     99  48  17 S7        29.89F
DEER VALLEY    SUNNY     94  46  19 W9G17     29.92F
SCOTTSDALE     SUNNY     97  45  16 W10       29.94F
MESA-FALCON      N/A    N/A N/A N/A W17       29.90
MESA-GATEWAY   MOSUNNY   95  41  15 NW12      29.93F
CHANDLER       MOSUNNY   97  41  14 N7        29.91F
$$

AZZ027-028-282300-
SOUTHWEST MARICOPA COUNTY AND PINAL COUNTY

CITY           SKY/WX    TMP DP  RH WIND       PRES   REMARKS
CASA GRANDE    SUNNY     99  39  12 W12G18    29.95F
GILA BEND      FAIR     100  36  11 W8        29.88F
$$

AZZ503-504-507>509-282300-
SOUTHEAST ARIZONA

CITY           SKY/WX    TMP DP  RH WIND       PRES   REMARKS
TUCSON         SUNNY     95  39  14 CALM      30.00F
DAVIS-MONTHAN  SUNNY     92  40  16 VRB2      29.99F
RYAN FIELD     SUNNY     91  39  16 N7        30.00F
NOGALES        SUNNY     90  40  17 VRB7      30.08F
SIERRA VISTA   PTSUNNY   84  39  20 VRB2      30.13F
DOUGLAS        SUNNY     89  39  17 W12       30.07F
SAFFORD        SUNNY     93  37  14 MISG      30.00F
$$

AZZ020-021-025-026-031-282300-
SOUTHWEST ARIZONA

CITY           SKY/WX    TMP DP  RH WIND       PRES   REMARKS
YUMA           SUNNY    103  39  11 CALM      29.85F
$$

CAZ031-033-041-043-047-048-061-282300-
SOUTHERN CALIFORNIA

CITY           SKY/WX    TMP DP  RH WIND       PRES   REMARKS
DOWNTOWN L.A.  SUNNY     78  61  55 W8        29.96F
L.A. AIRPORT   SUNNY     74  60  61 W16G25    29.97F
SAN DIEGO      MOSUNNY   75  62  64 NW13      29.98F
BURBANK        SUNNY     89  59  36 S9        29.95F
ONTARIO        MOSUNNY   93  53  25 W12G20    29.94F
RIVERSIDE      SUNNY     95  54  25 W10       29.94F
PALM SPRINGS   MOSUNNY  105  51  16 E10       29.87F HX 102
EL CENTRO NAS    N/A    103  45  14 VRB5      29.86F
IMPERIAL       SUNNY    102  51  18 CALM      29.84F
BLYTHE         SUNNY    103  47  15 VRB7      29.86F
NEEDLES        SUNNY    102  51  18 CALM      29.91F
$$

NVZ020-UTZ003-282300-
SOUTHERN NEVADA-UTAH

CITY           SKY/WX    TMP DP  RH WIND       PRES   REMARKS
LAS VEGAS      MOSUNNY   94  45  18 VRB5      29.99F
SALT LAKE CITY MOSUNNY   92  29  10 NW10      30.12F
$$

NMZ009-TXZ055-282300-
NEW MEXICO-WEST TEXAS

CITY           SKY/WX    TMP DP  RH WIND       PRES   REMARKS
ALBUQUERQUE    PTSUNNY   79  43  27 S13       30.20F
EL PASO        MOSUNNY   88  56  33 VRB5      30.05F
$$


........................KEY........................
SKY/WX - SKY CONDITION/WEATHER
TMP    - TEMPERATURE IN FAHRENHEIT
DP     - DEW POINT IN FAHRENHEIT
RH     - RELATIVE HUMIDITY IN PERCENT
WIND   - DIRECTION AND SPEED IN MILES PER HOUR (MPH)
VRB    - VARIABLE WIND DIRECTION
PRES   - MEAN SEA LEVEL PRESSURE IN INCHES OF MERCURY
         F - FALLING PRESSURE   R - RISING PRESSURE
         S - STEADY PRESSURE
VSB    - VISIBILITY IN MILES
HX     - HEAT INDEX IN FAHRENHEIT
WCI    - WIND CHILL INDEX IN FAHRENHEIT
TC     - TEMPERATURE IN CELSIUS WHICH IS ALSO KNOWN AS
         TEMPERATURE IN CENTIGRADE
AFB    - AIR FORCE BASE
         LUKE AFB IS LUKE AIR FORCE BASE
         DAVIS-MONTHAN IS DAVIS-MONTHAN AIR FORCE BASE
NAS    - NAVAL AIR STATION
         EL CENTRO NAS IS EL CENTRO NAVAL AIR STATION
N/A    - NOT AVAILABLE





USA.gov is the U.S. government's official web portal to all federal, state and local government web resources and services.